Flag for Germany Weather past 2 weeks in Marburg, Hesse, Germany

Now
80 °F

Sunny.


Feels Like: 82 °F
Forecast: 63 / 85 °F
Wind: 2 mph from South

Location: Giessen

Current Time: Aug 30, 2015 at 12:57:46 PM

Latest Report: Aug 30, 2015 at 12:00 PM


Visibility: 25 mi

Pressure: 30.05 "Hg

Humidity: 64%

Dew point: 67 °F

Location of MarburgLocation

Historic Weather in Marburg — Graph

°F

Marburg temperature yesterday

Maximum temperature yesterday: 81 °F (at 5:00 PM)
Minimum temperature yesterday: 50 °F (at 5:00 AM)
Average temperature yesterday: 65 °F

Past Weeks' High & Low Weather Summary

 TemperatureHumidityPressure
High81 °F (Aug 29, 5:00 PM)100% (Aug 21, 8:00 AM)30.30 "Hg (Aug 21, 8:00 AM)
Low49 °F (Aug 19, 7:00 AM)28% (Aug 23, 5:00 PM)29.65 "Hg (Aug 24, 5:00 PM)
Average64 °F75%29.99 "Hg
* Reported Aug 15 12:00 Noon — Aug 30 12:00 Noon, Marburg, Weather by CustomWeather, © 2015

Note: Actual official high and low records may vary slightly from our data, if they occured in-between our weather recording intervals... More about our weather records

Advertising

Marburg weather history for previous 24 hours

 ConditionsComfort  
Time TempWeatherWind HumidityBarometerVisibility
12:00 PM
Sun, Aug 30
80 °FSunny.2 mph64%30.05 "Hg25 mi
11:00 AM76 °FSunny.1 mph71%30.06 "Hg28 mi
10:00 AM73 °FSunny.3 mph80%30.07 "Hg19 mi
9:00 AM69 °FSunny.2 mph87%30.08 "Hg16 mi
8:00 AM65 °FSunny.1 mph94%30.08 "Hg6 mi
7:00 AM63 °FFog.1 mph99%30.07 "Hg3 mi
6:00 AM63 °FFog.1 mph99%30.07 "Hg4 mi
5:00 AM64 °FClear.2 mph97%30.07 "Hg6 mi
4:00 AM65 °FOvercast.3 mph96%30.08 "Hg7 mi
3:00 AM64 °FPassing clouds.2 mph97%30.10 "Hg6 mi
2:00 AM65 °FClear.1 mph97%30.10 "Hg8 mi
1:00 AM65 °FClear.1 mph96%30.11 "Hg7 mi
12:00 AM66 °FClear.1 mph94%30.11 "Hg10 mi
11:00 PM
Sat, Aug 29
68 °FPassing clouds.2 mph88%30.11 "Hg19 mi
10:00 PM71 °FOvercast.1 mph83%30.11 "Hg22 mi
9:00 PM72 °FPassing clouds.2 mph78%30.10 "Hg22 mi
8:00 PM77 °FSunny.2 mph67%30.09 "Hg37 mi
7:00 PM80 °FSunny.2 mph59%30.09 "Hg43 mi
6:00 PM81 °FOvercast.3 mph58%30.10 "Hg37 mi
5:00 PM81 °FPartly sunny.1 mph57%30.11 "Hg40 mi
4:00 PM81 °FPartly sunny.1 mph62%30.13 "Hg31 mi
3:00 PM78 °FScattered clouds.1 mph62%30.15 "Hg34 mi
2:00 PM74 °FPassing clouds.2 mph64%30.17 "Hg43 mi
1:00 PM73 °FPartly sunny.1 mph65%30.19 "Hg34 mi
12:00 PM69 °FPassing clouds.2 mph69%30.21 "Hg25 mi
Weather by CustomWeather, © 2015

See weather overviewHow to use our weather pages